Hourly Weather Centre

Today, 13 June, Sunday

Time Temperature Precipitation Wind Pressure Humidity
00:00 +16°C° 0 mm 2 mps 759 mmHg 92%
01:00 +16°C° 0 mm 2 mps 759 mmHg 93%
02:00 +15°C° 0 mm 2 mps 759 mmHg 94%
03:00 +15°C° 0 mm 2 mps 759 mmHg 94%
04:00 +14°C° 0 mm 3 mps 759 mmHg 90%
05:00 +16°C° 0 mm 3 mps 759 mmHg 86%
06:00 +17°C° 0 mm 3 mps 759 mmHg 82%
07:00 +18°C° 0 mm 3 mps 759 mmHg 75%
08:00 +20°C° 0 mm 3 mps 759 mmHg 69%
09:00 +22°C° 0 mm 3 mps 760 mmHg 62%
10:00 +23°C° 0 mm 4 mps 759 mmHg 57%
11:00 +25°C° 0 mm 4 mps 759 mmHg 52%
12:00 +26°C° 0 mm 4 mps 759 mmHg 48%
13:00 +27°C° 0 mm 4 mps 758 mmHg 47%
14:00 +27°C° 0 mm 4 mps 758 mmHg 46%
15:00 +27°C° 0 mm 5 mps 757 mmHg 46%
16:00 +26°C° 0 mm 4 mps 757 mmHg 51%
17:00 +25°C° 0 mm 4 mps 757 mmHg 56%
18:00 +23°C° 0 mm 4 mps 757 mmHg 61%
19:00 +21°C° 0 mm 3 mps 757 mmHg 68%
20:00 +19°C° 0 mm 3 mps 757 mmHg 74%
21:00 +17°C° 0 mm 3 mps 757 mmHg 81%
22:00 +16°C° 0 mm 3 mps 757 mmHg 84%
23:00 +14°C° 0 mm 3 mps 757 mmHg 87%

Tomorrow, 14 June, Monday

Time Temperature Precipitation Wind Pressure Humidity
00:00 +14°C° 0 mm 2 mps 756 mmHg 90%
01:00 +14°C° 0 mm 2 mps 756 mmHg 91%
02:00 +14°C° 0 mm 2 mps 756 mmHg 91%
03:00 +13°C° 0 mm 2 mps 756 mmHg 91%
04:00 +14°C° 0 mm 2 mps 756 mmHg 86%
05:00 +15°C° 0 mm 2 mps 756 mmHg 81%
06:00 +16°C° 0 mm 2 mps 756 mmHg 76%
07:00 +18°C° 0 mm 3 mps 756 mmHg 67%
08:00 +21°C° 0 mm 3 mps 756 mmHg 58%
09:00 +24°C° 0 mm 3 mps 756 mmHg 49%
10:00 +25°C° 0 mm 3 mps 756 mmHg 45%
11:00 +27°C° 0 mm 3 mps 756 mmHg 41%
12:00 +28°C° 0 mm 3 mps 755 mmHg 37%
13:00 +29°C° 0 mm 3 mps 755 mmHg 37%
14:00 +29°C° 0 mm 3 mps 755 mmHg 37%
15:00 +29°C° 0 mm 3 mps 755 mmHg 37%
16:00 +28°C° 0 mm 3 mps 755 mmHg 44%
17:00 +27°C° 0 mm 3 mps 755 mmHg 51%
18:00 +26°C° 0 mm 2 mps 754 mmHg 57%
19:00 +24°C° 0 mm 2 mps 755 mmHg 64%
20:00 +21°C° 0 mm 2 mps 755 mmHg 70%
21:00 +19°C° 0 mm 2 mps 755 mmHg 77%
22:00 +18°C° 0 mm 2 mps 755 mmHg 80%
23:00 +18°C° 0 mm 2 mps 755 mmHg 83%

Day after tomorrow, 15 June, Tuesday

Time Temperature Precipitation Wind Pressure Humidity
00:00 +17°C° 0 mm 2 mps 755 mmHg 86%
01:00 +17°C° 0 mm 2 mps 755 mmHg 88%
02:00 +16°C° 0 mm 2 mps 755 mmHg 90%
03:00 +16°C° 0 mm 2 mps 755 mmHg 92%
04:00 +17°C° 0 mm 2 mps 755 mmHg 88%
05:00 +18°C° 0 mm 2 mps 755 mmHg 84%
06:00 +19°C° 0 mm 2 mps 755 mmHg 81%
07:00 +21°C° 0 mm 2 mps 755 mmHg 73%
08:00 +24°C° 0 mm 2 mps 755 mmHg 65%
09:00 +26°C° 0 mm 2 mps 755 mmHg 57%
10:00 +27°C° 0 mm 2 mps 755 mmHg 53%
11:00 +28°C° 0 mm 2 mps 755 mmHg 49%
12:00 +29°C° 0 mm 2 mps 755 mmHg 45%
13:00 +30°C° 0 mm 2 mps 754 mmHg 44%
14:00 +30°C° 0 mm 3 mps 754 mmHg 44%
15:00 +30°C° 0 mm 3 mps 753 mmHg 44%
16:00 +29°C° 0 mm 3 mps 753 mmHg 50%
17:00 +28°C° 0 mm 3 mps 753 mmHg 55%
18:00 +27°C° 0 mm 2 mps 753 mmHg 61%
19:00 +26°C° 0 mm 2 mps 753 mmHg 68%
20:00 +24°C° 0 mm 2 mps 752 mmHg 74%
21:00 +21°C° 0 mm 2 mps 752 mmHg 81%
22:00 +20°C° 0 mm 2 mps 752 mmHg 84%
23:00 +19°C° 0 mm 2 mps 752 mmHg 88%

16 June, Wednesday

Time Temperature Precipitation Wind Pressure Humidity
00:00 +19°C° 0 mm 2 mps 752 mmHg 91%
01:00 +18°C° 0 mm 2 mps 752 mmHg 92%
02:00 +18°C° 0 mm 2 mps 751 mmHg 93%
03:00 +18°C° 0 mm 2 mps 751 mmHg 94%
04:00 +19°C° 0 mm 2 mps 751 mmHg 90%
05:00 +20°C° 0 mm 2 mps 751 mmHg 87%
06:00 +21°C° 0 mm 2 mps 750 mmHg 83%
07:00 +24°C° 0 mm 2 mps 750 mmHg 75%
08:00 +26°C° 0 mm 3 mps 750 mmHg 66%
09:00 +28°C° 0 mm 3 mps 750 mmHg 58%
10:00 +29°C° 0 mm 3 mps 750 mmHg 52%
11:00 +31°C° 0 mm 2 mps 749 mmHg 46%
12:00 +32°C° 0 mm 2 mps 749 mmHg 41%
13:00 +32°C° 0 mm 2 mps 749 mmHg 44%
14:00 +31°C° 0 mm 2 mps 748 mmHg 48%
15:00 +30°C° 0 mm 2 mps 748 mmHg 51%
16:00 +30°C° 0 mm 2 mps 748 mmHg 55%
17:00 +30°C° 0 mm 1 mps 748 mmHg 59%
18:00 +30°C° 0 mm 1 mps 747 mmHg 63%
19:00 +28°C° 0 mm 1 mps 747 mmHg 65%
20:00 +27°C° 0 mm 1 mps 747 mmHg 67%
21:00 +25°C° 0 mm 2 mps 747 mmHg 70%
22:00 +24°C° 1.4 mm 3 mps 748 mmHg 78%
23:00 +21°C° 1.4 mm 4 mps 748 mmHg 87%

17 June, Thursday

Time Temperature Precipitation Wind Pressure Humidity
00:00 +20°C° 1.4 mm 5 mps 749 mmHg 96%
01:00 +20°C° 0.3 mm 4 mps 748 mmHg 97%
02:00 +19°C° 0.3 mm 3 mps 748 mmHg 97%
03:00 +18°C° 0.3 mm 2 mps 748 mmHg 98%
04:00 +19°C° 0 mm 2 mps 748 mmHg 96%
05:00 +19°C° 0 mm 3 mps 749 mmHg 95%
06:00 +19°C° 0 mm 3 mps 749 mmHg 93%
07:00 +21°C° 0 mm 3 mps 749 mmHg 84%
08:00 +23°C° 0 mm 4 mps 749 mmHg 75%
09:00 +25°C° 0 mm 4 mps 749 mmHg 66%
10:00 +27°C° 0 mm 4 mps 749 mmHg 62%
11:00 +28°C° 0 mm 4 mps 749 mmHg 58%
12:00 +29°C° 0 mm 3 mps 749 mmHg 54%
13:00 +27°C° 3.6 mm 4 mps 748 mmHg 65%
14:00 +25°C° 3.6 mm 5 mps 748 mmHg 77%
15:00 +22°C° 3.6 mm 6 mps 748 mmHg 88%
16:00 +21°C° 4.4 mm 5 mps 748 mmHg 90%
17:00 +21°C° 4.4 mm 3 mps 748 mmHg 93%
18:00 +20°C° 4.4 mm 2 mps 748 mmHg 95%
19:00 +20°C° 0.2 mm 2 mps 749 mmHg 96%
20:00 +19°C° 0.2 mm 2 mps 749 mmHg 96%
21:00 +19°C° 0.2 mm 2 mps 749 mmHg 97%
22:00 +19°C° 0.3 mm 3 mps 749 mmHg 97%
23:00 +18°C° 0.3 mm 3 mps 748 mmHg 97%

18 June, Friday

Time Temperature Precipitation Wind Pressure Humidity
00:00 +18°C° 0.3 mm 3 mps 748 mmHg 97%
01:00 +18°C° 0.1 mm 4 mps 748 mmHg 96%
02:00 +18°C° 0.1 mm 4 mps 747 mmHg 96%
03:00 +19°C° 0.1 mm 4 mps 747 mmHg 95%
04:00 +19°C° 0 mm 4 mps 747 mmHg 94%
05:00 +18°C° 0 mm 4 mps 747 mmHg 93%
06:00 +17°C° 0 mm 5 mps 748 mmHg 92%
07:00 +17°C° 0.2 mm 6 mps 748 mmHg 92%
08:00 +17°C° 0.2 mm 6 mps 748 mmHg 93%
09:00 +16°C° 0.2 mm 7 mps 749 mmHg 93%
10:00 +17°C° 0.1 mm 7 mps 750 mmHg 86%
11:00 +20°C° 0.1 mm 7 mps 750 mmHg 78%
12:00 +21°C° 0.1 mm 7 mps 751 mmHg 70%
13:00 +22°C° 0 mm 6 mps 751 mmHg 67%
14:00 +23°C° 0 mm 6 mps 751 mmHg 63%
15:00 +24°C° 0 mm 6 mps 751 mmHg 60%
16:00 +25°C° 0 mm 5 mps 751 mmHg 63%
17:00 +23°C° 0 mm 4 mps 751 mmHg 67%
18:00 +24°C° 0 mm 3 mps 751 mmHg 71%
19:00 +21°C° 0 mm 2 mps 751 mmHg 77%
20:00 +19°C° 0 mm 2 mps 751 mmHg 84%
21:00 +19°C° 0 mm 1 mps 752 mmHg 91%
22:00 +17°C° 0 mm 2 mps 751 mmHg 91%
23:00 +17°C° 0 mm 2 mps 751 mmHg 91%
Show more

We Need Your Consent

Meteoprog and our Service Providers may store and access personal data such as cookies, device identifiers or other similar technologies on your device and process such data to personalise content and ads, as well as provide social media features and to analyse the traffic.

  • Store and/or access information on your device

    Cookies, device identifiers or other information can be stored or accessed on your device for the purposes indicated above.

  • Personalised ads and content, ad and content measurement, audience insights, and products development

    Ads and content can be personalised based on a profile. More data can be added to better personalise ads and content. Ad and content performance can be measured. Insights about the audience who saw the ads and content can be derived. Such data can be used to develop or improve user’s experience, systems and software.

By clicking ‘I Agree’ you will allow the use of indicated cookies, device identifiers, web beacons or other similar technologies. Your settings can be changed in the browser on your device.

For certain purposes, legitimate interests may be relied on, rather than consent. You can read more about this in our Privacy and Cookie Policy.